Content
SEND FEEDBACK

Daily
Averages
Monthly
Summary
United States of America

GLEN CANYON CITY, UTAH


Home > North America > United States > Utah
Elevation: 4133 feet     Latitude: 37 05N     Longitude: 111 40W

WEATHER
 
SELECT A DAY
Number of Records: 197,164;   Date Range: 1/1/95 - 10/23/14
 
SHARE

PRINT THIS DATA

[ ← Previous Day ]
WEATHER ALMANAC - JULY 23, 2013
[ Next Day → ]
[ °C ]   °F
Weather ElementAverageHighLow
Temperature84.4 °F91.9 °F (2:53 pm)75 °F (3:53 am)
Dewpoint53.5 °F57.9 °F (5:53 am)46 °F (5:53 pm)
Humidity35.8 %52 % (4:53 am)21 % (5:53 pm)
Barometer29.85 in29.89 in (9:53 am)29.78 in (5:53 pm)
Wind Speed5.1 mph10.4 mph (1:53 am)
Wind Gust20.7 mph (1:53 am)
Weather ElementAverage
Visibility10 mi
Wind DirectionWSW (240 °)

Weather ElementTotal
Precipitation---
Cooling Degree Days18.5 (Base 65)
Growing Degree Days33.5 (Base 50)
Averaged from 23 records on July 23, 2013
WEATHER CONDITIONS BREAKOUT
WIND DIRECTION BREAKOUT
WEATHER BY HOUR - JULY 23, 2013
[ °C ]   °F
Local TimeTemperatureDewpointHumidityBarometerVisibilityWind DirectionWind SpeedGust SpeedPrecipitationEventsConditions
1:53 AM77.0 °F57.0 °F50 %29.86 in10.0 miSSW (210°)10.4 mph20.7 mphClear
2:53 AM77.0 °F55.9 °F48 %29.87 in10.0 miSW (230°)5.8 mphClear
3:53 AM75.0 °F55.9 °F51 %29.87 in10.0 miSouth (180°)4.6 mphClear
4:53 AM75.9 °F57.0 °F52 %29.86 in10.0 miWest (280°)3.5 mphPartly Cloudy
5:53 AM78.1 °F57.9 °F50 %29.87 in10.0 miNorth (350°)4.6 mphClear
6:53 AM78.1 °F57.0 °F48 %29.87 in10.0 miNNW (340°)8.1 mphClear
7:53 AM81.0 °F55.9 °F42 %29.88 in10.0 miNorth (350°)10.4 mphClear
8:53 AM82.0 °F55.9 °F41 %29.88 in10.0 miCalmClear
9:53 AM82.9 °F55.0 °F38 %29.89 in10.0 miSouth (180°)3.5 mphClear
10:53 AM84.0 °F55.0 °F37 %29.89 in10.0 miWSW (240°)3.5 mphMostly Cloudy
11:53 AM84.9 °F55.0 °F36 %29.88 in10.0 miCalmClear
12:53 PM89.1 °F54.0 °F30 %29.87 in10.0 miNW (310°)4.6 mphClear
1:53 PM89.1 °F55.0 °F31 %29.86 in10.0 miNorth (360°)5.8 mphClear
2:53 PM91.9 °F51.1 °F25 %29.81 in10.0 miNW (320°)5.8 mphClear
3:53 PM91.0 °F48.9 °F23 %29.80 in10.0 miVariable5.8 mphClear
4:53 PM91.0 °F50.0 °F24 %29.79 in10.0 miNNW (330°)3.5 mphClear
5:53 PM91.9 °F46.0 °F21 %29.78 in10.0 miWNW (300°)6.9 mphClear
6:53 PM91.0 °F48.0 °F23 %29.79 in10.0 miWest (280°)4.6 mphClear
7:53 PM89.1 °F48.9 °F25 %29.80 in10.0 miNW (320°)4.6 mphClear
8:53 PM88.0 °F51.1 °F28 %29.81 in10.0 miNW (310°)4.6 mphClear
9:53 PM84.9 °F52.0 °F32 %29.85 in10.0 miNNE (20°)5.8 mphClear
10:53 PM84.9 °F54.0 °F34 %29.84 in10.0 miNW (320°)5.8 mphClear
11:53 PM84.0 °F54.0 °F35 %29.84 in10.0 miWNW (290°)5.8 mph0.00 inClear
Hourly data recorded from KPGA, located miles away from Glen Canyon City, Utah







STORIES FROM OUR PARTNERS